Retour au catalogue

THORAD DELTA 1 DEB

ActifLEO
NORAD 9699·DEBRIS·🇺🇸 United States

Lancé Nov 15, 1974 depuis Vandenberg Space Force Base

Loading…

Prochains Passages (prochaines 24 heures)

TLE

FraisSource: Space-Track

Époque: Sep 14, 2026, 18:37 UTC

1 09699U 74089DY  26257.77635703 -.00000029  00000-0  96500-4 0  9997
2 09699 101.6463   4.6541 0124308 149.6632   5.0719 12.29332702328483

Suivez THORAD DELTA 1 DEB en temps réel avec AllMySat

Download on the App Store